Location: Unspecified
(0.0000°N, 0.0000°E)
Time: 13:05:46
(UTC+00:00)

TerraSAR-X - Visible Passes

Search period start: 22 October 2021 00:00
Search period end: 01 November 2021 00:00
Orbit: 507 x 509 km, 97.4° (Epoch: 22 October)

Date Brightness Start Highest point End Pass type
(mag) Time Alt. Az. Time Alt. Az. Time Alt. Az.
22 Oct 8.7 05:12:55 10° ENE 05:15:07 15° ESE 05:17:20 10° SE visible
22 Oct 8.2 18:37:33 10° SSW 18:40:18 20° WSW 18:43:03 10° NW visible
23 Oct 7.0 18:19:50 10° S 18:23:16 36° WSW 18:26:43 10° NNW visible
24 Oct 5.4 18:02:32 10° S 18:06:14 74° W 18:09:56 10° NNW visible
27 Oct 8.6 18:46:38 10° SW 18:48:45 15° WSW 18:50:52 10° WNW visible
28 Oct 9.2 05:05:26 10° E 05:06:33 11° ESE 05:07:40 10° ESE visible
28 Oct 7.6 18:28:33 10° SSW 18:31:43 27° WSW 18:34:53 10° NW visible
29 Oct 6.2 18:11:04 10° S 18:14:41 52° WSW 18:18:17 10° NNW visible
